• In Hungary
  • List of Countries
  • For 7 days
  • Water Temperature
  • Satellite Maps
  • Weather Map
  • News
  • Weather Widgets
  • user-avatar
    Login

    Hourly Weather Philadelphia

    Today, 21 February, Wednesday

    Time Temperature Precipitation Wind Pressure Humidity
    00:00 +15°C° 0 mm 4 mps 770 mmHg 93%
    01:00 +15°C° 0 mm 4 mps 770 mmHg 94%
    02:00 +15°C° 0 mm 4 mps 769 mmHg 95%
    03:00 +15°C° 0 mm 4 mps 769 mmHg 95%
    04:00 +15°C° 0 mm 4 mps 769 mmHg 95%
    05:00 +15°C° 0 mm 4 mps 769 mmHg 95%
    06:00 +17°C° 0 mm 4 mps 769 mmHg 95%
    07:00 +17°C° 0 mm 4 mps 769 mmHg 95%
    08:00 +16°C° 0 mm 5 mps 769 mmHg 92%
    09:00 +17°C° 0 mm 5 mps 769 mmHg 88%
    10:00 +19°C° 0 mm 5 mps 769 mmHg 85%
    11:00 +21°C° 0 mm 5 mps 769 mmHg 78%
    12:00 +22°C° 0 mm 6 mps 768 mmHg 71%
    13:00 +24°C° 0 mm 6 mps 768 mmHg 65%
    14:00 +25°C° 0 mm 5 mps 768 mmHg 65%
    15:00 +25°C° 0 mm 5 mps 767 mmHg 65%
    16:00 +25°C° 0 mm 5 mps 767 mmHg 65%
    17:00 +23°C° 0.2 mm 4 mps 768 mmHg 71%
    18:00 +22°C° 0.2 mm 3 mps 768 mmHg 77%
    19:00 +20°C° 0.2 mm 3 mps 769 mmHg 84%
    20:00 +19°C° 0.1 mm 3 mps 770 mmHg 83%
    21:00 +18°C° 0.1 mm 4 mps 770 mmHg 83%
    22:00 +15°C° 0.1 mm 4 mps 771 mmHg 83%
    23:00 +14°C° 0 mm 4 mps 772 mmHg 76%

    Tomorrow, 22 February, Thursday

    Time Temperature Precipitation Wind Pressure Humidity
    00:00 +12°C° 0 mm 4 mps 772 mmHg 69%
    01:00 +11°C° 0 mm 3 mps 773 mmHg 63%
    02:00 +10°C° 0 mm 3 mps 773 mmHg 60%
    03:00 +10°C° 0 mm 3 mps 773 mmHg 56%
    04:00 +9°C° 0 mm 3 mps 773 mmHg 53%
    05:00 +9°C° 0.2 mm 3 mps 774 mmHg 57%
    06:00 +9°C° 0.2 mm 3 mps 774 mmHg 62%
    07:00 +9°C° 0.2 mm 3 mps 774 mmHg 66%
    08:00 +8°C° 0.3 mm 3 mps 775 mmHg 68%
    09:00 +7°C° 0.3 mm 4 mps 775 mmHg 70%
    10:00 +6°C° 0.3 mm 4 mps 775 mmHg 72%
    11:00 +6°C° 1.5 mm 4 mps 775 mmHg 75%
    12:00 +5°C° 1.5 mm 4 mps 775 mmHg 78%
    13:00 +5°C° 1.5 mm 5 mps 775 mmHg 81%
    14:00 +3°C° 1.6 mm 5 mps 775 mmHg 82%
    15:00 +3°C° 1.6 mm 5 mps 775 mmHg 83%
    16:00 +3°C° 1.6 mm 5 mps 775 mmHg 83%
    17:00 +3°C° 0.4 mm 5 mps 775 mmHg 83%
    18:00 +3°C° 0.4 mm 4 mps 775 mmHg 83%
    19:00 +3°C° 0.4 mm 4 mps 775 mmHg 83%
    20:00 +3°C° 0.1 mm 4 mps 775 mmHg 83%
    21:00 +3°C° 0.1 mm 4 mps 776 mmHg 84%
    22:00 +3°C° 0.1 mm 3 mps 776 mmHg 85%
    23:00 +3°C° 0.3 mm 3 mps 776 mmHg 85%

    Day after tomorrow, 23 February, Friday

    Time Temperature Precipitation Wind Pressure Humidity
    00:00 +3°C° 0.3 mm 3 mps 775 mmHg 86%
    01:00 +3°C° 0.3 mm 3 mps 775 mmHg 86%
    02:00 +3°C° 0.1 mm 3 mps 775 mmHg 86%
    03:00 +3°C° 0.1 mm 3 mps 775 mmHg 86%
    04:00 +3°C° 0.1 mm 3 mps 775 mmHg 86%
    05:00 +3°C° 0.1 mm 3 mps 775 mmHg 86%
    06:00 +3°C° 0.1 mm 3 mps 775 mmHg 86%
    07:00 +3°C° 0.1 mm 3 mps 775 mmHg 86%
    08:00 +3°C° 0.2 mm 3 mps 775 mmHg 86%
    09:00 +4°C° 0.2 mm 3 mps 775 mmHg 86%
    10:00 +4°C° 0.2 mm 3 mps 775 mmHg 85%
    11:00 +4°C° 0.1 mm 3 mps 774 mmHg 86%
    12:00 +5°C° 0.1 mm 3 mps 773 mmHg 86%
    13:00 +5°C° 0.1 mm 3 mps 772 mmHg 87%
    14:00 +5°C° 0.4 mm 3 mps 772 mmHg 88%
    15:00 +6°C° 0.4 mm 2 mps 771 mmHg 90%
    16:00 +6°C° 0.4 mm 2 mps 770 mmHg 91%
    17:00 +6°C° 0.3 mm 2 mps 769 mmHg 93%
    18:00 +7°C° 0.3 mm 2 mps 769 mmHg 94%
    19:00 +7°C° 0.3 mm 2 mps 768 mmHg 95%
    20:00 +7°C° 0.6 mm 2 mps 768 mmHg 96%
    21:00 +7°C° 0.6 mm 2 mps 767 mmHg 97%
    22:00 +8°C° 0.6 mm 2 mps 766 mmHg 98%
    23:00 +8°C° 0 mm 2 mps 766 mmHg 98%

    24 February, Saturday

    Time Temperature Precipitation Wind Pressure Humidity
    00:00 +9°C° 0 mm 2 mps 765 mmHg 98%
    01:00 +10°C° 0 mm 3 mps 764 mmHg 98%
    02:00 +10°C° 0.1 mm 2 mps 764 mmHg 98%
    03:00 +10°C° 0.1 mm 2 mps 763 mmHg 98%
    04:00 +12°C° 0.1 mm 2 mps 763 mmHg 98%
    05:00 +12°C° 0 mm 2 mps 763 mmHg 98%
    06:00 +12°C° 0 mm 1 mps 763 mmHg 98%
    07:00 +12°C° 0 mm 1 mps 763 mmHg 98%
    08:00 +12°C° 0.1 mm 1 mps 763 mmHg 96%
    09:00 +13°C° 0.1 mm 1 mps 763 mmHg 95%
    10:00 +13°C° 0.1 mm 1 mps 764 mmHg 93%
    11:00 +14°C° 0.1 mm 1 mps 763 mmHg 91%
    12:00 +14°C° 0.1 mm 1 mps 762 mmHg 88%
    13:00 +14°C° 0.1 mm 1 mps 762 mmHg 86%
    14:00 +14°C° 0.3 mm 2 mps 761 mmHg 87%
    15:00 +14°C° 0.3 mm 2 mps 761 mmHg 89%
    16:00 +13°C° 0.3 mm 3 mps 760 mmHg 90%
    17:00 +13°C° 1 mm 3 mps 760 mmHg 92%
    18:00 +12°C° 1 mm 3 mps 760 mmHg 94%
    19:00 +12°C° 1 mm 3 mps 760 mmHg 96%
    20:00 +13°C° 0.7 mm 3 mps 760 mmHg 96%
    21:00 +13°C° 0.7 mm 3 mps 759 mmHg 96%
    22:00 +14°C° 0.7 mm 2 mps 759 mmHg 96%
    23:00 +14°C° 0.4 mm 3 mps 758 mmHg 95%

    25 February, Sunday

    Time Temperature Precipitation Wind Pressure Humidity
    00:00 +14°C° 0.4 mm 3 mps 758 mmHg 95%
    01:00 +16°C° 0.4 mm 3 mps 757 mmHg 94%
    02:00 +16°C° 1 mm 3 mps 757 mmHg 94%
    03:00 +16°C° 1 mm 3 mps 756 mmHg 95%
    04:00 +16°C° 1 mm 3 mps 756 mmHg 95%
    05:00 +17°C° 1.4 mm 4 mps 756 mmHg 95%
    06:00 +17°C° 1.4 mm 4 mps 755 mmHg 94%
    07:00 +16°C° 1.4 mm 5 mps 755 mmHg 94%
    08:00 +17°C° 1.2 mm 6 mps 755 mmHg 92%
    09:00 +17°C° 1.2 mm 6 mps 754 mmHg 90%
    10:00 +18°C° 1.2 mm 7 mps 754 mmHg 88%
    11:00 +18°C° 0.5 mm 7 mps 754 mmHg 84%
    12:00 +18°C° 0.5 mm 7 mps 754 mmHg 81%
    13:00 +20°C° 0.5 mm 7 mps 753 mmHg 78%
    14:00 +20°C° 0 mm 6 mps 754 mmHg 66%
    15:00 +20°C° 0 mm 6 mps 755 mmHg 54%
    16:00 +20°C° 0 mm 6 mps 755 mmHg 41%
    17:00 +17°C° 0 mm 5 mps 756 mmHg 44%
    18:00 +15°C° 0 mm 5 mps 758 mmHg 47%
    19:00 +14°C° 0 mm 4 mps 759 mmHg 50%
    20:00 +13°C° 0 mm 4 mps 759 mmHg 50%
    21:00 +12°C° 0 mm 5 mps 760 mmHg 51%
    22:00 +10°C° 0 mm 5 mps 761 mmHg 51%
    23:00 +10°C° 0 mm 5 mps 761 mmHg 51%

    26 February, Monday

    Time Temperature Precipitation Wind Pressure Humidity
    00:00 +9°C° 0 mm 5 mps 761 mmHg 51%
    01:00 +8°C° 0 mm 4 mps 762 mmHg 50%
    02:00 +8°C° 0 mm 4 mps 762 mmHg 51%
    03:00 +8°C° 0 mm 4 mps 762 mmHg 51%
    04:00 +7°C° 0 mm 4 mps 762 mmHg 52%
    05:00 +7°C° 0 mm 4 mps 763 mmHg 52%
    06:00 +8°C° 0 mm 3 mps 763 mmHg 51%
    07:00 +7°C° 0 mm 3 mps 764 mmHg 51%
    08:00 +7°C° 0 mm 4 mps 764 mmHg 48%
    09:00 +7°C° 0 mm 4 mps 764 mmHg 44%
    10:00 +8°C° 0 mm 5 mps 764 mmHg 41%
    11:00 +8°C° 0 mm 5 mps 764 mmHg 39%
    12:00 +9°C° 0 mm 5 mps 763 mmHg 37%
    13:00 +10°C° 0 mm 5 mps 763 mmHg 36%
    14:00 +10°C° 0 mm 5 mps 763 mmHg 36%
    15:00 +10°C° 0 mm 5 mps 762 mmHg 36%
    16:00 +12°C° 0 mm 5 mps 762 mmHg 36%
    17:00 +10°C° 0 mm 5 mps 763 mmHg 39%
    18:00 +9°C° 0 mm 5 mps 763 mmHg 42%
    19:00 +8°C° 0 mm 4 mps 764 mmHg 45%
    20:00 +7°C° 0 mm 5 mps 764 mmHg 45%
    21:00 +6°C° 0 mm 5 mps 765 mmHg 46%
    22:00 +4°C° 0 mm 6 mps 766 mmHg 46%
    23:00 +2°C° 0 mm 6 mps 766 mmHg 48%
    Show more